BID: ORB07207.N DECODE 2-LINE ELSETS WITH THE FOLLOWING KEY: 1 AAAAAU 00 0 0 BBBBB.BBBBBBBB .CCCCCCCC 00000-0 00000-0 0 DDDZ 2 AAAAA EEE.EEEE FFF.FFFF GGGGGGG HHH.HHHH III.IIII JJ.JJJJJJJJKKKKKZ KEY: A-CATALOGNUM B-EPOCHTIME C-DECAY D-ELSETNUM E-INCLINATION F-RAAN G-ECCENTRICITY H-ARGPERIGEE I-MNANOM J-MNMOTION K-ORBITNUM Z-CHECKSUM TO ALL RADIO AMATEURS BT AO-07 1 07530U 74089B 07206.92745771 -.00000028 00000-0 10000-3 0 09366 2 07530 101.5117 243.7924 0011860 179.1865 180.9225 12.53572453495975 AO-10 1 14129U 83058B 07207.39902672 -.00000068 00000-0 10000-3 0 4045 2 14129 026.3102 264.9505 6066524 042.0957 351.2283 02.05868025181370 UO-11 1 14781U 84021B 07206.73879734 -.00000089 00000-0 -45510-5 0 04308 2 14781 098.1892 230.1802 0010084 051.7454 308.4640 14.79567597255439 RS-15 1 23439U 94085A 07206.74110596 -.00000039 00000-0 10597-3 0 00534 2 23439 064.8195 304.5714 0158513 183.8227 176.1495 11.27552050518043 FO-29 1 24278U 96046B 07206.88089888 -.00000040 00000-0 -25532-5 0 05646 2 24278 098.5539 161.3330 0351071 343.2150 015.7602 13.52931592540130 SO-33 1 25509U 98061B 07206.85058100 .00000153 00000-0 20274-4 0 9816 2 25509 031.4316 007.1388 0354824 045.3381 317.5600 14.28170137456784 AO-40 1 26609U 00072B 07205.76052833 -.00000320 00000-0 10000-3 0 9080 2 26609 006.0104 130.9286 7975964 344.7543 000.9440 01.25587105 30916 VO-52 1 28650U 05017B 07206.67909244 -.00000200 00000-0 -18764-4 0 6856 2 28650 097.8299 276.5329 0028200 126.7121 233.6695 14.81338667120119 PO-63 1 29712U 07001D 07207.66742122 .00000470 00000-0 69375-4 0 5794 2 29712 097.9193 266.2764 0014508 007.6317 352.5115 14.79772410 29179 AO-16 1 20439U 90005D 07207.57525984 -.00000008 00000-0 12099-4 0 909 2 20439 098.1972 199.9632 0012046 069.4469 290.8020 14.31765804914189 LO-19 1 20442U 90005G 07206.55903560 -.00000042 00000-0 -46490-6 0 161 2 20442 098.1811 208.2999 0013061 071.9507 288.3091 14.32005948914181 AO-27 1 22825U 93061C 07206.42291945 .00000067 00000-0 42723-4 0 07408 2 22825 098.3329 174.6417 0008689 142.9009 217.2763 14.29213973720953 IO-26 1 22826U 93061D 07206.88364276 -.00000002 00000-0 15412-4 0 04375 2 22826 098.3261 176.1367 0009183 138.3512 221.8371 14.29460159721102 PO-28 1 22829U 93061G 07206.47090877 -.00000113 00000-0 -27807-4 0 07150 2 22829 098.3149 176.9033 0010609 116.2775 243.9514 14.30160434721287 GO-32 1 25397U 98043D 07207.18099719 -.00000103 00000-0 -27300-4 0 3581 2 25397 098.4123 252.6833 0002139 105.8826 254.2611 14.23128021469700 MO-46 1 26548U 00057D 07206.68504979 -.00000160 00000-0 -16933-5 0 08557 2 26548 064.5566 063.5661 0010677 191.8304 168.2543 14.83160454369253 NO-44 1 26931U 01043C 07207.05938174 .00000167 00000-0 97621-4 0 6431 2 26931 067.0524 047.3570 0007295 264.1554 095.8723 14.29491950303658 SO-50 1 27607U 02058C 07207.34313123 -.00000102 00000-0 59529-5 0 3671 2 27607 064.5589 326.1490 0059520 349.5183 010.4681 14.71274209246885 CO-55 1 27844U 03031E 07206.70352946 .00000011 00000-0 25677-4 0 818 2 27844 098.7187 214.4763 0010196 347.1664 012.9253 14.20522746210943 CO-57 1 27848U 03031J 07207.57437491 .00000001 00000-0 20985-4 0 419 2 27848 098.7174 214.5167 0010126 347.3838 012.7091 14.20340658211040 AO-51 1 28375U 04025K 07206.63102454 .00000005 00000-0 13987-4 0 8712 2 28375 098.1096 243.9637 0085231 065.8334 295.1738 14.40575034161244 CO-56 1 28941U 06005C 07207.55807205 .00018894 23802-5 18977-3 0 5118 2 28941 098.1285 273.0719 0221682 133.3836 228.6003 15.41231334 79493 HO-59 1 29484U 06041F 07207.55684349 .00038362 28208-5 24839-3 0 5349 2 29484 098.2821 263.3733 0199073 124.6302 237.3835 15.53858298 47188 NO-60 1 29661U 06055C 07150.05824307 .13324117 12618-4 10400-3 0 3000 2 29661 051.6186 176.5045 0007204 190.7749 188.7342 16.52052832 25544 NO-61 1 29664U 06055F 07207.57327692 .00018261 11351-4 56742-4 0 3300 2 29664 051.6302 244.4262 0011280 129.0027 231.1967 15.94148351 34437 CP4 1 31122U 07012F 07206.69867539 .00000595 00000-0 14251-3 0 00937 2 31122 098.0850 278.7318 0084409 265.8977 093.2548 14.55020730014458 CP3 1 31128U 07012M 07206.63966973 -.00000049 00000-0 00000-0 0 00871 2 31128 098.0809 278.1782 0101769 267.1215 091.8340 14.51849792014408 LIBERT 1 31129U 07012N 07207.80531581 .00000383 00000-0 10000-3 0 2477 2 31129 098.0792 279.3060 0101752 263.7739 095.1758 14.51942823 14552 NOAA-10 1 16969U 86073A 07207.06879721 .00000033 00000-0 31524-4 0 7411 2 16969 098.7448 224.2719 0013317 056.2465 303.9981 14.27330109 84772 NOAA-11 1 19531U 88089A 07207.16815838 -.00000106 00000-0 -32068-4 0 7437 2 19531 098.8122 295.8487 0010791 281.1539 078.8424 14.14846558971669 NOAA-12 1 21263U 91032A 07207.11730175 .00000008 00000-0 22177-4 0 2398 2 21263 098.7529 204.2950 0012793 359.6146 000.5040 14.25548548841798 MET-3/5 1 21655U 91056A 07206.91690800 .00000051 00000-0 10000-3 0 03318 2 21655 082.5540 335.5777 0014543 108.7975 251.4726 13.17012190766502 MET-2/21 1 22782U 93055A 07207.49148776 .00000024 00000-0 84156-5 0 8876 2 22782 082.5476 010.7288 0023671 123.5692 236.7748 13.83619146701959 OKEAN-4 1 23317U 94066A 07206.78715405 .00000025 00000-0 92961-7 0 03279 2 23317 082.5381 260.5223 0023772 122.8662 237.4880 14.82520118689774 NOAA-14 1 23455U 94089A 07207.43011654 -.00000081 00000-0 -19110-4 0 7231 2 23455 098.9875 273.8214 0009154 355.1681 004.9391 14.13723125648184 SICH-1 1 23657U 95046A 07206.78683943 .00000128 00000-0 13173-4 0 01262 2 23657 082.5265 041.4674 0025538 114.5625 245.8264 14.81502471641742 NOAA-15 1 25338U 98030A 07207.29121401 -.00000013 00000-0 12987-4 0 804 2 25338 098.5314 202.8733 0009496 276.3484 083.6614 14.24656613478252 RESURS 1 25394U 98043A 07207.69335938 -.00000015 00000-0 11750-4 0 6968 2 25394 098.4387 260.6559 0002474 070.5112 289.6333 14.24141377469973 FENGYUN1 1 25730U 99025A 07207.94433537 .00000610 00000-0 38580-3 0 1846 2 25730 098.6876 190.3041 0021091 019.4511 340.7474 14.07564592423062 OKEAN-0 1 25860U 99039A 07206.53246917 .00000025 00000-0 11110-4 0 01147 2 25860 097.7313 206.9899 0000551 065.7988 294.3272 14.73464816431146 NOAA-16 1 26536U 00055A 07207.36359971 .00000078 00000-0 67399-4 0 4999 2 26536 099.1177 184.9903 0011452 065.6034 294.6360 14.12441221352630 NOAA-17 1 27453U 02032A 07207.44825738 .00000062 00000-0 45830-4 0 5106 2 27453 098.5782 275.8055 0011268 344.8594 015.2247 14.23896476264305 NOAA-18 1 28654U 05018A 07207.46506265 .00000346 00000-0 21609-3 0 466 2 28654 098.8281 148.0915 0014740 153.8640 206.3269 14.11082395112392 HUBBLE 1 20580U 90037B 07207.59012151 .00000291 00000-0 96928-5 0 9243 2 20580 028.4691 293.1702 0003959 157.1298 202.9467 15.00263535745882 UARS 1 21701U 91063B 07206.95168605 .00001836 00000-0 37442-4 0 01371 2 21701 056.9751 145.6638 0085413 266.6952 092.4316 15.48547089871750 PO-34 1 25520U 98064B 07206.33206305 .00000329 00000-0 65005-5 0 7867 2 25520 028.4604 213.4442 0005172 309.8082 050.2060 15.17025296483326 ISS 1 25544U 98067A 07207.69571917 .00005673 00000-0 39903-4 0 6537 2 25544 051.6339 259.6661 0009185 166.4909 289.3790 15.75931002497014 OO-38 1 26063U 00004C 07206.56604864 -.00000046 00000-0 44834-5 0 09703 2 26063 100.2278 216.2775 0037375 051.9812 308.4728 14.35811051392566 UWE-1 1 28892U 05043C 07207.28880030 .00000044 00000-0 18938-4 0 8042 2 28892 098.1268 103.1504 0017511 354.5886 005.5117 14.59525176 92918 CO-58 1 28895U 05043F 07207.26623362 -.00000018 00000-0 58610-5 0 7847 2 28895 098.1285 103.3540 0017898 354.7265 005.3731 14.59570214 92792 NCUBE2 1 28897U 05043H 07206.65122248 .00000096 00000-0 29897-4 0 03124 2 28897 098.1268 102.7044 0017720 357.5574 002.5545 14.59734213084980 NMARS 1 29662U 06055D 07126.39603970 .07031946 12599-4 11450-3 0 2632 2 29662 051.6121 302.3682 0004459 252.1654 110.7411 16.47981436 21652 FCAL 1 29667U 06055J 07207.57436707 .00007097 11102-4 35021-4 0 2227 2 29667 051.6317 247.5241 0013601 133.3866 226.8276 15.89514275 34266 FALCON 1 30776U 07006E 07206.72231786 .00000165 00000-0 15223-4 0 1022 2 30776 035.4353 339.0537 0000975 016.2842 343.7905 15.02739975 20856 MAST 1 31126U 07012K 07206.67460137 .00000392 00000-0 10000-3 0 890 2 31126 098.0810 278.4451 0093696 266.5317 092.5133 14.53354078 14441 CAPE1 1 31130U 07012P 07206.63843243 .00000213 00000-0 60651-4 0 00760 2 31130 098.0810 278.1768 0101703 267.1870 091.7701 14.51869856014191 /EX
14 years, 10 months
1
0
0
0
orb07207.amsat
by Ray Hoad
SB KEPS @ AMSAT $ORB07207.O Orbital Elements 07207.OSCAR HR AMSAT ORBITAL ELEMENTS FOR OSCAR SATELLITES FROM WA5QGD FORT WORTH,TX July 26, 2007 Send Subscribe/unsubscribe to KEPS at
http://www.amsat.org/mailman/listinfo/keps
